KSA4566 KMIA-MMUN

Flight info

Callsign KSA4566
Flight time N/A
Altitude 34000
Route GLADZ4 LULLS Y196 CANOA UB879 NOSAT NOSAT1B
Aircraft A320/M-SDE3FGHIRWY/LB1

Departure

Time 2026-05-05 06:00
Airport Miami International Airport (KMIA)

Arrival

Time N/A
Airport Cancún International Airport (MMUN)
Time Latitude Longitude Altitude Speed Heading
2026-05-05 05:20 25.79263 -80.28193 24 ft 0 kts 175°
2026-05-05 05:48 25.79287 -80.28196 26 ft 4 kts 170°
2026-05-05 05:48 25.79314 -80.28202 24 ft 4 kts 166°
2026-05-05 05:48 25.79340 -80.28209 24 ft 4 kts 169°
2026-05-05 05:48 25.79363 -80.28210 24 ft 4 kts 220°
2026-05-05 05:49 25.79368 -80.28206 23 ft 0 kts 254°
2026-05-05 05:53 25.79367 -80.28209 23 ft 1 kts 254°
2026-05-05 05:53 25.79356 -80.28237 24 ft 7 kts 243°
2026-05-05 05:54 25.79322 -80.28287 24 ft 9 kts 222°
2026-05-05 05:54 25.79276 -80.28336 23 ft 10 kts 223°
2026-05-05 05:54 25.79234 -80.28396 23 ft 11 kts 255°
2026-05-05 05:54 25.79259 -80.28483 25 ft 13 kts 300°
2026-05-05 05:55 25.79308 -80.28580 20 ft 16 kts 299°
2026-05-05 05:55 25.79368 -80.28701 18 ft 20 kts 298°
2026-05-05 05:55 25.79438 -80.28837 19 ft 21 kts 299°
2026-05-05 05:55 25.79512 -80.28978 20 ft 22 kts 300°
2026-05-05 05:56 25.79587 -80.29128 22 ft 22 kts 300°
2026-05-05 05:56 25.79666 -80.29278 23 ft 23 kts 300°
2026-05-05 05:56 25.79736 -80.29419 22 ft 19 kts 299°
2026-05-05 05:56 25.79806 -80.29554 20 ft 22 kts 299°
2026-05-05 05:57 25.79879 -80.29698 17 ft 16 kts 299°
2026-05-05 05:57 25.79891 -80.29827 19 ft 18 kts 265°
2026-05-05 05:57 25.79905 -80.29956 17 ft 17 kts 286°
2026-05-05 05:57 25.79964 -80.30051 17 ft 16 kts 308°
2026-05-05 05:58 25.79987 -80.30096 18 ft 0 kts 297°
2026-05-05 05:58 25.80001 -80.30115 18 ft 8 kts 321°
2026-05-05 05:58 25.80055 -80.30127 19 ft 8 kts 14°
2026-05-05 05:59 25.80071 -80.30095 18 ft 0 kts 84°
2026-05-05 05:59 25.80071 -80.30091 18 ft 6 kts 84°
2026-05-05 05:59 25.80088 -80.29781 17 ft 74 kts 88°
2026-05-05 05:59 25.80119 -80.28995 25 ft 128 kts 88°
2026-05-05 06:00 25.80165 -80.27841 21 ft 171 kts 88°
2026-05-05 06:00 25.80173 -80.26519 568 ft 164 kts 88°
2026-05-05 06:00 25.80189 -80.25260 1106 ft 168 kts 88°
2026-05-05 06:00 25.80255 -80.23959 1681 ft 170 kts 85°
2026-05-05 06:01 25.80384 -80.22652 2191 ft 174 kts 83°
2026-05-05 06:01 25.80530 -80.21231 2364 ft 197 kts 84°
2026-05-05 06:01 25.80659 -80.19625 2538 ft 222 kts 86°
2026-05-05 06:01 25.80776 -80.17799 2696 ft 254 kts 85°
2026-05-05 06:02 25.81318 -80.15869 3180 ft 269 kts 53°
2026-05-05 06:02 25.82796 -80.14678 3936 ft 272 kts 14°
2026-05-05 06:02 25.84665 -80.14694 4705 ft 270 kts 341°
2026-05-05 06:02 25.86392 -80.15465 5448 ft 268 kts 334°
2026-05-05 06:03 25.88164 -80.16156 6190 ft 273 kts 346°
2026-05-05 06:03 25.90066 -80.16454 6908 ft 278 kts 348°
2026-05-05 06:03 25.91968 -80.16867 7665 ft 279 kts 343°
2026-05-05 06:03 25.93845 -80.17407 8468 ft 278 kts 340°
2026-05-05 06:04 25.95698 -80.18032 9228 ft 279 kts 336°
2026-05-05 06:04 25.97368 -80.19061 9983 ft 271 kts 314°
2026-05-05 06:04 25.98504 -80.20654 10766 ft 258 kts 293°
2026-05-05 06:04 25.99148 -80.22463 11481 ft 254 kts 281°
2026-05-05 06:05 25.99435 -80.24379 12220 ft 250 kts 275°
2026-05-05 06:05 25.99665 -80.26277 12996 ft 245 kts 275°
2026-05-05 06:05 25.99768 -80.28137 13794 ft 238 kts 268°
2026-05-05 06:05 25.99764 -80.29950 14508 ft 230 kts 269°
2026-05-05 06:06 25.99764 -80.31718 15137 ft 229 kts 269°
2026-05-05 06:06 25.99764 -80.33493 15660 ft 231 kts 269°
2026-05-05 06:06 25.99762 -80.35324 15920 ft 245 kts 269°
2026-05-05 06:06 25.99759 -80.37264 16048 ft 263 kts 269°
2026-05-05 06:07 25.99733 -80.39368 16176 ft 281 kts 265°
2026-05-05 06:07 25.99423 -80.41576 16303 ft 298 kts 256°
2026-05-05 06:07 25.98711 -80.43808 16427 ft 316 kts 246°
2026-05-05 06:07 25.97561 -80.45958 16555 ft 333 kts 236°
2026-05-05 06:08 25.96097 -80.48036 16690 ft 348 kts 234°
2026-05-05 06:08 25.94580 -80.50176 17028 ft 355 kts 234°
2026-05-05 06:08 25.93049 -80.52337 17579 ft 357 kts 235°
2026-05-05 06:08 25.91513 -80.54507 18139 ft 359 kts 235°
2026-05-05 06:09 25.89962 -80.56697 18591 ft 362 kts 235°
2026-05-05 06:09 25.88422 -80.58875 19055 ft 364 kts 235°
2026-05-05 06:09 25.86851 -80.61095 19530 ft 367 kts 235°
2026-05-05 06:09 25.85273 -80.63326 20018 ft 369 kts 236°
2026-05-05 06:10 25.83679 -80.65580 20500 ft 372 kts 236°
2026-05-05 06:10 25.83140 -80.66343 20666 ft 372 kts 236°